Showing default

COSMOS 1888, 18384

Orbit data source: Space-Track

COSMOS 1888, 18384 is a payload satellite owned by UNKS (CIS) in GEO that was launched on Thu, 01 Oct 1987 UTC via a PROTON-K/DM-2 launch vehicle from the Tyuratam Missile And Space Complex (TTMTR). Payloads include a variety of satellites, spacecraft, and rockets equipped with specific instruments for various scientific and technological missions. These include communications satellites like Starlink; space stations such as the ISS; scientific satellites like the Hubble; Earth observation satellites from companies like Planet Labs, Umbra, and HawkEye 360; GPS; miniature CubeSats for education and research; and military/defense satellites.

Not visible in the next 10 days
COSMOS 1888 details
Identifier
18384, 1987-084A
Orbit
GEO
Last TLE update17 hours ago
Origin
Flag of CISUNKS (CIS)
ManufacturerNPOPM/NPOL
MissionDefense Communications
Bus & MotorGEIZER, Unknown motor
Mass2,100 kg wet, ~1,900 kg dry
Launch date (UTC)
1987-10-01 (37 years ago)
Launch vehicle
PROTON-K/DM-2
Launch site
Tyuratam Missile And Space Complex (TTMTR)
Object type
Payload
Rocket body
Debris
Shape & HBRCyl + 2 Pan + 1 Plate, 9 m
Radar Cross Section27.853 m², Large (>1 m²)

Expand to show TLE details & history

TLE from 17 hours ago
0 COSMOS 1888
1 18384U 87084A   24360.83822799 -.00000354  00000-0  00000-0 0  9997
2 18384  11.5606 329.6282 0003649 242.2465 302.6458  1.00353642136297
Epoch: 2024-12-25T20:07Z
Definitive object data (Epoch: 2024-12-25T20:07:02.898Z)
Latitude-0.97319°
Longitude117.79193°
Altitude35,755.112 km
Speed3.076 km/s
True Right ascension10h 17m 31s
True Declination0° 58' 20"
Sunlit
Object was in daylight at TLE epoch
Visualization TLE readout
Latitude11.42339°
Longitude13.31241°
Altitude35,777.241 km
Speed3.075 km/s
Apparent Right ascension03h 02m 34s
Apparent Declination5° 25' 03"
Sunlit
Object is in daylight
Visualization observer readout
Local Sidereal Time12:27:27
Azimuth312.452° NW
Elevation-32.321°
Doppler factor1
Orbital elements
Apogee altitude35,780.049 km
Perigee altitude35,749.293 km
Semi-major axis42,142.808 km
Eccentricity0.0003649
Inclination11.5606°
RAAN329.6282°
Arg. of periapsis242.2465°
True anomaly302.61058°
Mean anomaly302.6458°
Eccentric anomaly302.62819°
Mean motion0.25088 °/min
BSTARUnknown
Orbital period1434.98 mins
Loading historical data...
18384 neighbors
Authenticating...
Loading maneuver chart data...
Loading historical data...
Loading historical data...
Loading historical data...
Loading historical data...
Loading historical data...
Loading historical data...
Loading historical data...

COSMOS 1888 Visibility forecast

Observer location: undefined°, undefined

COSMOS 1888 is not visible in the next 10 days
Span
Click to sort rows by Start time (UTC) header in descending order
Start Az.
Max El. time (UTC)
Max El. Az.
Max El.
End time (UTC)
End Az.
|